DECAYED
Showing default

HADES-ICM, 63492 (Decayed)

Orbit data source: Space-Track

HADES-ICM, 63492 was a Spanish payload satellite in LEO that was launched on Sat, 15 Mar 2025 UTC via an FALCON 9 launch vehicle from the Air Force Western Test Range (AFWTR). Payload-class satellites include a variety of spacecraft equipped with specific instruments for various scientific and technological missions. These include communications satellites like Starlink; space stations such as the ISS; scientific satellites like the Hubble; Earth observation satellites from companies like Planet Labs, Umbra, and HawkEye 360; GPS; miniature CubeSats for education and research; and military/defense satellites.

Not visible in the next 10 days
Identifier
63492, 2025-052BN
Orbit
Decayed
Country
Flag of ESES / SPN
Related business
Manufacturer
Hydra Space
Mission
Decayed Amateur Communications
Bus & Motor
PQ 1.5P, Unknown motor
Mass
0.375 kg wet, 0.375 kg dry
Launch date (UTC)
2025-03-15 (1 year ago)
Launch vehicle
FALCON 9
Launch site
Air Force Western Test Range (AFWTR)
Object type
Payload
Rocket body
Debris
Shape & HBR
Box, 1.1 m
Radar Cross Section
0.006 m², Medium (>0.1 m² and < 1m²)

Expand to show TLE details & history
Last TLE update: 1 month ago

TLE from 1 month ago
0 HADES-ICM
1 63492U 25052BN  26141.26653985  .06534464  24594-5  20838-2 0  9990
2 63492  97.3646  46.2798 0012126 212.7126 147.3417 16.26141574 66567
Epoch: 2026-05-21T06:23Z
TLE epoch observation values (Epoch: 2026-05-21T06:23:49.043Z)
Latitude
0.00005°
Longitude
71.41124°
Altitude
212.886 km
Speed
7.775 km/s
True Right ascension
03h 05m 07s
True Declination
0° 00' 00"
Sunlit
Object was in daylight at epoch
Visualization orbit readout
Latitude
Unknown
Longitude
Unknown
Altitude
Unknown
Speed
Unknown
Apparent Right ascension
Unknown
Apparent Declination
Unknown
Sunlit
N/A
Visualization observer readout
Local Sidereal Time
07:24:22
Azimuth
Unknown
Elevation
Unknown
Doppler factor
Unknown
Orbital elements
Apogee altitude
207.73 km
Perigee altitude
191.777 km
Semi-major axis
6,577.89 km
Eccentricity
0.00121
Inclination
97.3646°
RAAN
46.2798°
Arg. of periapsis
212.7126°
True anomaly
147.41659°
Mean anomaly
147.3417°
Eccentric anomaly
147.37915°
Mean motion
4.0683 °/min
Orbital period
88.49 mins
BSTAR
0.0020838
Loading maneuver chart data...
Computing Atmospheric mass density...
Loading historical data...
Loading historical data...
Loading historical data...
Loading historical data...
Loading historical data...
Loading historical data...
Loading historical data...

Documentation

Showing up to 5 results
|